Time,TemperatureF,DewpointF,PressureIn,WindDirection,WindDirectionDegrees,WindSpeedMPH,WindSpeedGustMPH,Humidity,HourlyPrecipIn,Conditions,Clouds,dailyrainin,SoftwareType,DateUTC
2013-01-25 00:00:00,7.1,-4.5,30.15,North,351,11.2,21.2,58,0.00,,,0.00,WUHU216PEETBRO,2013-01-25 05:00:00,
2013-01-25 00:01:00,7.3,-4.5,30.15,NNW,331,1.3,21.2,58,0.00,,,0.00,WUHU216PEETBRO,2013-01-25 05:01:00,
2013-01-25 00:03:00,7.4,-3.9,30.15,North,2,16.4,21.2,59,0.00,,,0.00,WUHU216PEETBRO,2013-01-25 05:03:00,
2013-01-25 00:08:00,6.8,-4.4,30.16,North,2,10.6,17.0,59,0.00,,,0.00,WUHU216PEETBRO,2013-01-25 05:08:00,
2013-01-25 00:13:00,6.9,-3.9,30.16,NNW,337,5.8,18.9,60,0.00,,,0.00,WUHU216PEETBRO,2013-01-25 05:13:00,
2013-01-25 00:18:00,7.1,-3.5,30.15,NNW,331,20.9,26.7,61,0.00,,,0.00,WUHU216PEETBRO,2013-01-25 05:18:00,
2013-01-25 00:23:00,6.8,-3.9,30.15,NNW,331,6.7,26.7,61,0.00,,,0.00,WUHU216PEETBRO,2013-01-25 05:23:00,
2013-01-25 00:28:00,7.3,-3.5,30.15,NNW,334,19.5,24.0,60,0.00,,,0.00,WUHU216PEETBRO,2013-01-25 05:28:00,
2013-01-25 00:33:00,7.2,-3.6,30.14,North,359,14.8,23.9,60,0.00,,,0.00,WUHU216PEETBRO,2013-01-25 05:33:00,
2013-01-25 00:38:00,7.3,-3.4,30.15,NNW,341,6.6,25.6,61,0.00,,,0.00,WUHU216PEETBRO,2013-01-25 05:38:00,
2013-01-25 00:43:00,7.6,-3.2,30.15,NNW,331,3.4,25.6,61,0.00,,,0.00,WUHU216PEETBRO,2013-01-25 05:43:00,
2013-01-25 00:48:00,7.0,-3.6,30.15,NNW,328,5.4,19.9,61,0.00,,,0.00,WUHU216PEETBRO,2013-01-25 05:48:00,
2013-01-25 00:53:00,6.4,-4.0,30.15,North,358,12.4,19.9,61,0.00,,,0.00,WUHU216PEETBRO,2013-01-25 05:53:00,
2013-01-25 00:58:00,6.3,-4.2,30.15,NNW,337,5.3,19.0,61,0.00,,,0.00,WUHU216PEETBRO,2013-01-25 05:58:00,
2013-01-25 01:03:00,6.0,-4.2,30.15,NNW,340,15.0,19.5,62,0.00,,,0.00,WUHU216PEETBRO,2013-01-25 06:03:00,
2013-01-25 01:08:00,7.2,-3.5,30.15,North,352,10.4,23.7,61,0.00,,,0.00,WUHU216PEETBRO,2013-01-25 06:08:00,
2013-01-25 01:13:00,6.8,-3.3,30.15,NNW,327,1.3,23.7,62,0.00,,,0.00,WUHU216PEETBRO,2013-01-25 06:13:00,
2013-01-25 01:18:00,7.0,-3.3,30.16,North,1,9.5,17.0,62,0.00,,,0.00,WUHU216PEETBRO,2013-01-25 06:18:00,
2013-01-25 01:23:00,6.6,-3.6,30.15,NNW,345,5.9,20.3,62,0.00,,,0.00,WUHU216PEETBRO,2013-01-25 06:23:00,
2013-01-25 01:28:00,6.7,-3.6,30.15,NNW,331,19.1,21.0,62,0.00,,,0.00,WUHU216PEETBRO,2013-01-25 06:28:00,
2013-01-25 01:33:00,7.1,-3.1,30.16,NNW,330,4.6,21.4,62,0.00,,,0.00,WUHU216PEETBRO,2013-01-25 06:33:00,
2013-01-25 01:38:00,6.1,-3.8,30.16,North,349,1.1,21.4,63,0.00,,,0.00,WUHU216PEETBRO,2013-01-25 06:38:00,
2013-01-25 01:43:00,6.4,-3.3,30.16,NNW,347,5.0,14.5,64,0.00,,,0.00,WUHU216PEETBRO,2013-01-25 06:43:00,
2013-01-25 01:48:00,7.0,-2.8,30.17,NNW,327,0.8,21.3,63,0.00,,,0.00,WUHU216PEETBRO,2013-01-25 06:48:00,
2013-01-25 01:53:00,6.7,-3.2,30.17,NNW,347,2.4,21.3,63,0.00,,,0.00,WUHU216PEETBRO,2013-01-25 06:53:00,
2013-01-25 01:58:00,6.3,-3.3,30.17,NNW,331,8.0,19.9,64,0.00,,,0.00,WUHU216PEETBRO,2013-01-25 06:58:00,
2013-01-25 02:03:00,6.3,-3.3,30.16,NNE,21,7.4,19.9,64,0.00,,,0.00,WUHU216PEETBRO,2013-01-25 07:03:00,
2013-01-25 02:08:00,6.3,-3.2,30.16,NNW,344,3.6,19.5,64,0.00,,,0.00,WUHU216PEETBRO,2013-01-25 07:08:00,
2013-01-25 02:13:00,6.6,-3.0,30.16,NNW,342,8.3,16.9,64,0.00,,,0.00,WUHU216PEETBRO,2013-01-25 07:13:00,
2013-01-25 02:18:00,6.2,-3.6,30.17,NNW,335,12.7,19.6,63,0.00,,,0.00,WUHU216PEETBRO,2013-01-25 07:18:00,
2013-01-25 02:23:00,5.8,-4.0,30.18,NNW,331,13.1,19.9,63,0.00,,,0.00,WUHU216PEETBRO,2013-01-25 07:23:00,
2013-01-25 02:28:00,6.2,-3.6,30.17,NNW,337,5.7,26.0,63,0.00,,,0.00,WUHU216PEETBRO,2013-01-25 07:28:00,
2013-01-25 02:33:00,6.5,-3.5,30.18,North,5,7.3,26.0,63,0.00,,,0.00,WUHU216PEETBRO,2013-01-25 07:33:00,
2013-01-25 02:38:00,6.2,-3.9,30.17,North,352,13.9,20.6,62,0.00,,,0.00,WUHU216PEETBRO,2013-01-25 07:38:00,
2013-01-25 02:43:00,6.5,-3.8,30.17,North,359,13.6,20.8,62,0.00,,,0.00,WUHU216PEETBRO,2013-01-25 07:43:00,
2013-01-25 02:48:00,6.2,-4.1,30.17,North,1,6.5,20.8,62,0.00,,,0.00,WUHU216PEETBRO,2013-01-25 07:48:00,
2013-01-25 02:53:00,6.8,-3.6,30.17,NNW,328,5.5,22.9,62,0.00,,,0.00,WUHU216PEETBRO,2013-01-25 07:53:00,
2013-01-25 02:58:00,7.1,-3.3,30.17,North,351,8.6,22.9,62,0.00,,,0.00,WUHU216PEETBRO,2013-01-25 07:58:00,
2013-01-25 03:03:00,6.8,-3.4,30.17,NNW,333,7.3,21.7,62,0.00,,,0.00,WUHU216PEETBRO,2013-01-25 08:03:00,
2013-01-25 03:08:00,6.6,-3.4,30.17,North,355,4.1,21.7,63,0.00,,,0.00,WUHU216PEETBRO,2013-01-25 08:08:00,
2013-01-25 03:13:00,5.9,-4.0,30.18,NNW,348,9.4,18.8,63,0.00,,,0.00,WUHU216PEETBRO,2013-01-25 08:13:00,
2013-01-25 03:18:00,6.8,-3.5,30.18,North,357,19.3,32.4,62,0.00,,,0.00,WUHU216PEETBRO,2013-01-25 08:18:00,
2013-01-25 03:23:00,6.4,-3.8,30.18,NNE,32,8.8,32.4,62,0.00,,,0.00,WUHU216PEETBRO,2013-01-25 08:23:00,
2013-01-25 03:28:00,6.1,-4.0,30.18,North,349,6.6,21.4,62,0.00,,,0.00,WUHU216PEETBRO,2013-01-25 08:28:00,
2013-01-25 03:33:00,5.8,-4.2,30.18,NNW,341,9.1,21.4,63,0.00,,,0.00,WUHU216PEETBRO,2013-01-25 08:33:00,
2013-01-25 03:38:00,6.7,-3.2,30.18,NNW,328,3.0,20.6,63,0.00,,,0.00,WUHU216PEETBRO,2013-01-25 08:38:00,
2013-01-25 03:43:00,6.6,-3.3,30.18,NE,52,9.8,20.2,63,0.00,,,0.00,WUHU216PEETBRO,2013-01-25 08:43:00,
2013-01-25 03:48:00,6.5,-3.6,30.18,North,359,9.1,22.6,62,0.00,,,0.00,WUHU216PEETBRO,2013-01-25 08:48:00,
2013-01-25 03:53:00,6.4,-3.4,30.18,NNW,348,14.0,23.2,63,0.00,,,0.00,WUHU216PEETBRO,2013-01-25 08:53:00,
2013-01-25 03:58:00,6.4,-3.2,30.18,North,355,11.9,23.2,64,0.00,,,0.00,WUHU216PEETBRO,2013-01-25 08:58:00,
2013-01-25 04:03:00,6.3,-3.3,30.18,North,351,13.0,21.5,64,0.00,,,0.00,WUHU216PEETBRO,2013-01-25 09:03:00,
2013-01-25 04:08:00,6.2,-3.0,30.18,North,350,8.3,24.6,65,0.00,,,0.00,WUHU216PEETBRO,2013-01-25 09:08:00,
2013-01-25 04:13:00,5.8,-3.7,30.18,NNW,328,6.7,24.6,64,0.00,,,0.00,WUHU216PEETBRO,2013-01-25 09:13:00,
2013-01-25 04:18:00,5.8,-3.7,30.18,North,351,5.5,20.4,64,0.00,,,0.00,WUHU216PEETBRO,2013-01-25 09:18:00,
2013-01-25 04:23:00,6.0,-3.4,30.18,NW,314,0.0,20.4,64,0.00,,,0.00,WUHU216PEETBRO,2013-01-25 09:23:00,
2013-01-25 04:28:00,5.7,-3.6,30.18,North,351,3.0,14.0,65,0.00,,,0.00,WUHU216PEETBRO,2013-01-25 09:28:00,
2013-01-25 04:33:00,5.5,-3.5,30.17,North,351,14.5,16.8,65,0.00,,,0.00,WUHU216PEETBRO,2013-01-25 09:33:00,
2013-01-25 04:38:00,5.4,-3.8,30.18,NNW,348,6.0,16.9,65,0.00,,,0.00,WUHU216PEETBRO,2013-01-25 09:38:00,
2013-01-25 04:44:00,5.4,-3.8,30.18,North,352,11.1,16.9,65,0.00,,,0.00,WUHU216PEETBRO,2013-01-25 09:44:00,
2013-01-25 04:49:00,5.5,-3.6,30.18,NNW,342,5.4,16.0,65,0.00,,,0.00,WUHU216PEETBRO,2013-01-25 09:49:00,
2013-01-25 04:54:00,5.4,-3.8,30.18,North,350,2.2,17.3,65,0.00,,,0.00,WUHU216PEETBRO,2013-01-25 09:54:00,
2013-01-25 04:59:00,5.7,-3.4,30.18,NNW,338,7.0,17.3,65,0.00,,,0.00,WUHU216PEETBRO,2013-01-25 09:59:00,
2013-01-25 05:04:00,5.2,-3.7,30.18,NNW,333,3.4,15.5,66,0.00,,,0.00,WUHU216PEETBRO,2013-01-25 10:04:00,
2013-01-25 05:09:00,5.7,-2.9,30.19,NNW,337,13.0,13.0,67,0.00,,,0.00,WUHU216PEETBRO,2013-01-25 10:09:00,
2013-01-25 05:14:00,5.4,-3.4,30.19,NNW,334,8.4,17.0,66,0.00,,,0.00,WUHU216PEETBRO,2013-01-25 10:14:00,
2013-01-25 05:19:00,5.5,-3.5,30.19,NNW,334,8.5,19.0,66,0.00,,,0.00,WUHU216PEETBRO,2013-01-25 10:19:00,
2013-01-25 05:24:00,5.5,-3.4,30.20,North,351,7.8,19.0,66,0.00,,,0.00,WUHU216PEETBRO,2013-01-25 10:24:00,
2013-01-25 05:29:00,5.9,-2.9,30.20,NNW,328,8.0,19.1,66,0.00,,,0.00,WUHU216PEETBRO,2013-01-25 10:29:00,
2013-01-25 05:34:00,5.5,-3.5,30.19,NNW,327,5.4,19.2,66,0.00,,,0.00,WUHU216PEETBRO,2013-01-25 10:34:00,
2013-01-25 05:39:00,5.5,-3.4,30.20,NNW,335,4.6,19.2,66,0.00,,,0.00,WUHU216PEETBRO,2013-01-25 10:39:00,
2013-01-25 05:44:00,5.3,-3.4,30.20,NNW,340,2.7,15.1,67,0.00,,,0.00,WUHU216PEETBRO,2013-01-25 10:44:00,
2013-01-25 05:49:00,5.3,-3.1,30.20,NNW,341,6.6,15.1,67,0.00,,,0.00,WUHU216PEETBRO,2013-01-25 10:49:00,
2013-01-25 05:54:00,5.3,-3.1,30.20,NW,317,0.0,14.2,67,0.00,,,0.00,WUHU216PEETBRO,2013-01-25 10:54:00,
2013-01-25 05:59:00,5.4,-2.9,30.20,NNW,328,4.0,14.2,68,0.00,,,0.00,WUHU216PEETBRO,2013-01-25 10:59:00,
2013-01-25 06:04:00,5.0,-3.4,30.20,NNW,330,7.8,12.1,67,0.00,,,0.00,WUHU216PEETBRO,2013-01-25 11:04:00,
2013-01-25 06:09:00,5.1,-3.2,30.20,NW,321,9.3,20.3,68,0.00,,,0.00,WUHU216PEETBRO,2013-01-25 11:09:00,
2013-01-25 06:14:00,5.4,-3.0,30.21,North,8,6.5,20.3,67,0.00,,,0.00,WUHU216PEETBRO,2013-01-25 11:14:00,
2013-01-25 06:19:00,5.3,-3.2,30.20,North,352,6.5,17.2,67,0.00,,,0.00,WUHU216PEETBRO,2013-01-25 11:19:00,
2013-01-25 06:24:00,5.0,-3.5,30.20,NNW,341,8.5,13.9,67,0.00,,,0.00,WUHU216PEETBRO,2013-01-25 11:24:00,
2013-01-25 06:29:00,4.9,-3.8,30.20,NNW,327,5.9,16.1,67,0.00,,,0.00,WUHU216PEETBRO,2013-01-25 11:29:00,
2013-01-25 06:34:00,5.4,-3.4,30.21,NW,321,3.2,16.1,66,0.00,,,0.00,WUHU216PEETBRO,2013-01-25 11:34:00,
2013-01-25 06:39:00,4.9,-3.6,30.21,NNW,330,9.6,16.4,67,0.00,,,0.00,WUHU216PEETBRO,2013-01-25 11:39:00,
2013-01-25 06:44:00,5.2,-3.7,30.21,NW,307,0.0,17.3,66,0.00,,,0.00,WUHU216PEETBRO,2013-01-25 11:44:00,
2013-01-25 06:49:00,5.5,-3.5,30.21,NNW,342,5.4,17.9,66,0.00,,,0.00,WUHU216PEETBRO,2013-01-25 11:49:00,
2013-01-25 06:54:00,5.2,-3.7,30.21,NNW,331,3.9,17.9,66,0.00,,,0.00,WUHU216PEETBRO,2013-01-25 11:54:00,
2013-01-25 06:59:00,5.4,-3.6,30.21,NNW,331,10.4,22.1,66,0.00,,,0.00,WUHU216PEETBRO,2013-01-25 11:59:00,
2013-01-25 07:04:00,5.7,-3.4,30.21,NNW,345,7.7,22.1,65,0.00,,,0.00,WUHU216PEETBRO,2013-01-25 12:04:00,
2013-01-25 07:09:00,5.6,-3.5,30.21,NNW,330,13.1,19.9,65,0.00,,,0.00,WUHU216PEETBRO,2013-01-25 12:09:00,
2013-01-25 07:14:00,5.6,-3.7,30.22,NNW,328,7.5,20.6,65,0.00,,,0.00,WUHU216PEETBRO,2013-01-25 12:14:00,
2013-01-25 07:19:00,5.3,-4.3,30.22,North,349,5.8,20.6,64,0.00,,,0.00,WUHU216PEETBRO,2013-01-25 12:19:00,
2013-01-25 07:24:00,5.7,-4.1,30.22,NNW,344,4.9,16.8,63,0.00,,,0.00,WUHU216PEETBRO,2013-01-25 12:24:00,
2013-01-25 07:29:00,5.3,-4.5,30.22,NNW,333,3.5,17.6,63,0.00,,,0.00,WUHU216PEETBRO,2013-01-25 12:29:00,
2013-01-25 07:34:00,5.8,-4.1,30.22,NW,324,1.9,17.6,63,0.00,,,0.00,WUHU216PEETBRO,2013-01-25 12:34:00,
2013-01-25 07:39:00,5.5,-4.4,30.22,North,349,8.4,18.1,63,0.00,,,0.00,WUHU216PEETBRO,2013-01-25 12:39:00,
2013-01-25 07:44:00,5.5,-4.6,30.22,NNW,338,15.0,20.3,62,0.00,,,0.00,WUHU216PEETBRO,2013-01-25 12:44:00,
2013-01-25 07:49:00,6.2,-4.0,30.22,NNW,327,6.2,20.3,62,0.00,,,0.00,WUHU216PEETBRO,2013-01-25 12:49:00,
2013-01-25 07:54:00,5.6,-4.6,30.22,North,1,5.1,22.6,62,0.00,,,0.00,WUHU216PEETBRO,2013-01-25 12:54:00,
2013-01-25 07:59:00,5.9,-4.6,30.22,ENE,74,5.5,22.6,61,0.00,,,0.00,WUHU216PEETBRO,2013-01-25 12:59:00,
2013-01-25 08:04:00,6.2,-4.2,30.22,North,349,5.2,21.7,61,0.00,,,0.00,WUHU216PEETBRO,2013-01-25 13:04:00,
2013-01-25 08:09:00,6.8,-3.8,30.22,NNW,330,10.6,21.7,61,0.00,,,0.00,WUHU216PEETBRO,2013-01-25 13:09:00,
2013-01-25 08:14:00,6.4,-4.4,30.23,North,349,7.0,28.3,60,0.00,,,0.00,WUHU216PEETBRO,2013-01-25 13:14:00,
2013-01-25 08:19:00,7.4,-3.4,30.23,NNE,13,0.0,28.3,61,0.00,,,0.00,WUHU216PEETBRO,2013-01-25 13:19:00,
2013-01-25 08:24:00,7.2,-3.9,30.23,NNW,348,7.1,20.3,60,0.00,,,0.00,WUHU216PEETBRO,2013-01-25 13:24:00,
2013-01-25 08:29:00,7.5,-3.8,30.24,North,349,5.3,24.2,59,0.00,,,0.00,WUHU216PEETBRO,2013-01-25 13:29:00,
2013-01-25 08:34:00,8.0,-3.2,30.24,NNW,347,6.3,24.2,60,0.00,,,0.00,WUHU216PEETBRO,2013-01-25 13:34:00,
2013-01-25 08:39:00,7.2,-4.2,30.24,NW,323,6.8,17.5,59,0.00,,,0.00,WUHU216PEETBRO,2013-01-25 13:39:00,
2013-01-25 08:44:00,7.5,-3.6,30.24,NNW,331,6.0,15.9,60,0.00,,,0.00,WUHU216PEETBRO,2013-01-25 13:44:00,
2013-01-25 08:49:00,8.1,-3.5,30.24,NW,323,6.0,17.6,58,0.00,,,0.00,WUHU216PEETBRO,2013-01-25 13:49:00,
2013-01-25 08:55:00,7.9,-3.5,30.24,NNW,337,7.9,17.6,59,0.00,,,0.00,WUHU216PEETBRO,2013-01-25 13:55:00,
2013-01-25 09:00:00,7.7,-3.7,30.24,NW,325,7.0,17.6,59,0.00,,,0.00,WUHU216PEETBRO,2013-01-25 14:00:00,
2013-01-25 09:05:00,8.5,-3.2,30.24,NW,323,1.2,17.1,58,0.00,,,0.00,WUHU216PEETBRO,2013-01-25 14:05:00,
2013-01-25 09:10:00,8.3,-3.8,30.24,NNW,333,7.8,21.4,57,0.00,,,0.00,WUHU216PEETBRO,2013-01-25 14:10:00,
2013-01-25 09:15:00,8.9,-2.8,30.23,NW,325,8.3,21.4,58,0.00,,,0.00,WUHU216PEETBRO,2013-01-25 14:15:00,
2013-01-25 09:20:00,8.3,-3.6,30.24,NNW,331,10.1,18.1,58,0.00,,,0.00,WUHU216PEETBRO,2013-01-25 14:20:00,
2013-01-25 09:25:00,8.9,-3.2,30.24,NW,325,12.9,19.8,57,0.00,,,0.00,WUHU216PEETBRO,2013-01-25 14:25:00,
2013-01-25 09:30:00,8.9,-3.0,30.23,NW,325,5.7,19.8,58,0.00,,,0.00,WUHU216PEETBRO,2013-01-25 14:30:00,
2013-01-25 09:35:00,8.9,-3.0,30.24,NW,321,13.0,18.9,58,0.00,,,0.00,WUHU216PEETBRO,2013-01-25 14:35:00,
2013-01-25 09:40:00,9.0,-3.5,30.24,North,1,9.8,19.5,56,0.00,,,0.00,WUHU216PEETBRO,2013-01-25 14:40:00,
2013-01-25 09:45:00,8.9,-3.5,30.23,NW,324,11.4,20.9,56,0.00,,,0.00,WUHU216PEETBRO,2013-01-25 14:45:00,
2013-01-25 09:50:00,10.2,-2.3,30.23,NNW,337,18.8,25.9,56,0.00,,,0.00,WUHU216PEETBRO,2013-01-25 14:50:00,
2013-01-25 09:55:00,10.4,-2.5,30.23,North,349,3.9,25.9,55,0.00,,,0.00,WUHU216PEETBRO,2013-01-25 14:55:00,
2013-01-25 10:00:00,10.6,-2.4,30.23,NNW,337,7.6,19.5,55,0.00,,,0.00,WUHU216PEETBRO,2013-01-25 15:00:00,
2013-01-25 10:05:00,11.0,-2.1,30.24,NNW,341,6.2,17.3,55,0.00,,,0.00,WUHU216PEETBRO,2013-01-25 15:05:00,
2013-01-25 10:10:00,10.7,-2.5,30.24,NNW,331,9.0,18.5,54,0.00,,,0.00,WUHU216PEETBRO,2013-01-25 15:10:00,
2013-01-25 10:15:00,10.3,-2.6,30.24,North,349,6.6,18.5,55,0.00,,,0.00,WUHU216PEETBRO,2013-01-25 15:15:00,
2013-01-25 10:20:00,11.0,-1.8,30.24,NNW,330,8.0,17.6,56,0.00,,,0.00,WUHU216PEETBRO,2013-01-25 15:20:00,
2013-01-25 10:25:00,11.8,-1.8,30.24,NW,321,6.7,15.2,54,0.00,,,0.00,WUHU216PEETBRO,2013-01-25 15:25:00,
2013-01-25 10:30:00,12.2,-1.9,30.24,NNE,22,5.8,14.7,53,0.00,,,0.00,WUHU216PEETBRO,2013-01-25 15:30:00,
2013-01-25 10:35:00,13.1,-0.7,30.25,NW,320,6.0,20.9,53,0.00,,,0.00,WUHU216PEETBRO,2013-01-25 15:35:00,
2013-01-25 10:40:00,13.1,-1.3,30.24,NNW,345,2.8,20.9,52,0.00,,,0.00,WUHU216PEETBRO,2013-01-25 15:40:00,
2013-01-25 10:45:00,12.6,-1.7,30.24,NW,323,2.4,19.3,52,0.00,,,0.00,WUHU216PEETBRO,2013-01-25 15:45:00,
2013-01-25 10:50:00,13.6,-1.1,30.24,NW,314,5.5,13.6,51,0.00,,,0.00,WUHU216PEETBRO,2013-01-25 15:50:00,
2013-01-25 10:55:00,14.1,-0.4,30.24,NNW,342,3.8,13.6,52,0.00,,,0.00,WUHU216PEETBRO,2013-01-25 15:55:00,
2013-01-25 11:00:00,14.2,-0.8,30.24,North,352,3.4,8.8,51,0.00,,,0.00,WUHU216PEETBRO,2013-01-25 16:00:00,
2013-01-25 11:05:00,14.3,-0.8,30.24,NW,325,2.9,8.8,50,0.00,,,0.00,WUHU216PEETBRO,2013-01-25 16:05:00,
2013-01-25 11:10:00,14.1,-0.9,30.24,North,351,6.6,17.1,51,0.00,,,0.00,WUHU216PEETBRO,2013-01-25 16:10:00,
2013-01-25 11:15:00,14.7,-0.7,30.23,NNW,328,9.3,18.8,50,0.00,,,0.00,WUHU216PEETBRO,2013-01-25 16:15:00,
2013-01-25 11:20:00,14.0,-1.7,30.23,NNW,328,2.7,18.8,49,0.00,,,0.00,WUHU216PEETBRO,2013-01-25 16:20:00,
2013-01-25 11:25:00,15.1,-0.5,30.22,NW,318,7.6,17.5,50,0.00,,,0.00,WUHU216PEETBRO,2013-01-25 16:25:00,
2013-01-25 11:30:00,15.3,-0.8,30.22,NNW,334,9.4,18.4,48,0.00,,,0.00,WUHU216PEETBRO,2013-01-25 16:30:00,
2013-01-25 11:35:00,15.7,-0.3,30.21,NNW,333,7.7,21.0,49,0.00,,,0.00,WUHU216PEETBRO,2013-01-25 16:35:00,
2013-01-25 11:40:00,14.3,-1.8,30.21,NNW,340,10.3,21.0,48,0.00,,,0.00,WUHU216PEETBRO,2013-01-25 16:40:00,
2013-01-25 11:45:00,13.9,-2.3,30.20,NW,323,10.0,21.9,48,0.00,,,0.00,WUHU216PEETBRO,2013-01-25 16:45:00,
2013-01-25 11:50:00,14.8,-1.5,30.20,North,355,16.0,21.9,48,0.00,,,0.00,WUHU216PEETBRO,2013-01-25 16:50:00,
2013-01-25 11:55:00,14.9,-1.5,30.20,NNW,340,9.0,18.7,48,0.00,,,0.00,WUHU216PEETBRO,2013-01-25 16:55:00,
2013-01-25 12:00:00,15.7,-0.6,30.20,NW,316,1.7,17.9,48,0.00,,,0.00,WUHU216PEETBRO,2013-01-25 17:00:00,
2013-01-25 12:05:00,16.2,-0.3,30.20,North,6,3.6,17.9,48,0.00,,,0.00,WUHU216PEETBRO,2013-01-25 17:05:00,
2013-01-25 12:10:00,16.4,-0.4,30.20,North,349,5.5,17.6,47,0.00,,,0.00,WUHU216PEETBRO,2013-01-25 17:10:00,
2013-01-25 12:15:00,17.2,0.5,30.19,NNW,338,10.5,17.6,48,0.00,,,0.00,WUHU216PEETBRO,2013-01-25 17:15:00,
2013-01-25 12:20:00,17.2,-0.3,30.19,NNW,342,9.4,19.8,46,0.00,,,0.00,WUHU216PEETBRO,2013-01-25 17:20:00,
2013-01-25 12:25:00,16.9,-0.4,30.19,NNW,345,8.6,19.8,46,0.00,,,0.00,WUHU216PEETBRO,2013-01-25 17:25:00,
2013-01-25 12:31:00,16.5,-0.4,30.19,NNW,344,9.0,16.8,47,0.00,,,0.00,WUHU216PEETBRO,2013-01-25 17:31:00,
2013-01-25 12:36:00,16.6,-0.7,30.19,NW,324,5.6,16.7,46,0.00,,,0.00,WUHU216PEETBRO,2013-01-25 17:36:00,
2013-01-25 12:41:00,16.9,-0.4,30.18,NW,304,5.0,19.7,46,0.00,,,0.00,WUHU216PEETBRO,2013-01-25 17:41:00,
2013-01-25 12:46:00,16.7,-1.0,30.18,NW,325,8.3,20.0,45,0.00,,,0.00,WUHU216PEETBRO,2013-01-25 17:46:00,
2013-01-25 12:51:00,16.7,-1.2,30.17,NW,323,4.9,20.0,45,0.00,,,0.00,WUHU216PEETBRO,2013-01-25 17:51:00,
2013-01-25 12:56:00,17.9,-0.7,30.17,NNW,338,2.9,18.1,44,0.00,,,0.00,WUHU216PEETBRO,2013-01-25 17:56:00,
2013-01-25 13:01:00,17.8,-0.6,30.17,NW,325,9.9,18.1,44,0.00,,,0.00,WUHU216PEETBRO,2013-01-25 18:01:00,
2013-01-25 13:06:00,18.8,-0.3,30.16,North,9,11.7,17.2,43,0.00,,,0.00,WUHU216PEETBRO,2013-01-25 18:06:00,
2013-01-25 13:11:00,18.6,-0.8,30.16,North,351,10.3,19.4,42,0.00,,,0.00,WUHU216PEETBRO,2013-01-25 18:11:00,
2013-01-25 13:16:00,18.7,-0.3,30.16,NW,324,4.7,19.4,43,0.00,,,0.00,WUHU216PEETBRO,2013-01-25 18:16:00,
2013-01-25 13:21:00,18.3,-1.3,30.16,NNW,344,8.9,19.1,42,0.00,,,0.00,WUHU216PEETBRO,2013-01-25 18:21:00,
2013-01-25 13:26:00,18.7,-0.8,30.16,NNW,333,8.8,19.1,42,0.00,,,0.00,WUHU216PEETBRO,2013-01-25 18:26:00,
2013-01-25 13:31:00,18.8,-0.8,30.15,North,351,9.1,17.5,42,0.00,,,0.00,WUHU216PEETBRO,2013-01-25 18:31:00,
2013-01-25 13:36:00,18.9,-1.4,30.15,North,349,4.2,17.5,41,0.00,,,0.00,WUHU216PEETBRO,2013-01-25 18:36:00,
2013-01-25 13:41:00,19.5,-0.3,30.15,NNW,334,7.4,16.2,42,0.00,,,0.00,WUHU216PEETBRO,2013-01-25 18:41:00,
2013-01-25 13:46:00,18.7,-1.2,30.15,North,349,8.5,14.4,41,0.00,,,0.00,WUHU216PEETBRO,2013-01-25 18:46:00,
2013-01-25 13:51:00,18.5,-1.7,30.14,NNW,334,9.1,14.4,41,0.00,,,0.00,WUHU216PEETBRO,2013-01-25 18:51:00,
2013-01-25 13:56:00,19.5,-0.7,30.14,North,349,3.1,17.9,41,0.00,,,0.00,WUHU216PEETBRO,2013-01-25 18:56:00,
2013-01-25 14:01:00,20.1,0.6,30.14,North,350,6.0,17.9,42,0.00,,,0.00,WUHU216PEETBRO,2013-01-25 19:01:00,
2013-01-25 14:06:00,19.9,0.6,30.14,NNW,327,1.8,13.2,43,0.00,,,0.00,WUHU216PEETBRO,2013-01-25 19:06:00,
2013-01-25 14:11:00,20.4,0.8,30.13,NNW,334,5.6,13.2,42,0.00,,,0.00,WUHU216PEETBRO,2013-01-25 19:11:00,
2013-01-25 14:16:00,20.2,-0.3,30.13,NNW,333,7.5,14.2,40,0.00,,,0.00,WUHU216PEETBRO,2013-01-25 19:16:00,
2013-01-25 14:21:00,20.1,0.3,30.13,NNW,330,3.9,14.3,42,0.00,,,0.00,WUHU216PEETBRO,2013-01-25 19:21:00,
2013-01-25 14:26:00,19.9,0.7,30.13,NW,324,9.9,14.3,43,0.00,,,0.00,WUHU216PEETBRO,2013-01-25 19:26:00,
2013-01-25 14:31:00,19.5,-0.7,30.13,NNW,333,5.6,15.8,41,0.00,,,0.00,WUHU216PEETBRO,2013-01-25 19:31:00,
2013-01-25 14:36:00,19.7,-0.7,30.12,NW,306,0.0,15.8,40,0.00,,,0.00,WUHU216PEETBRO,2013-01-25 19:36:00,
2013-01-25 14:41:00,19.5,-0.8,30.12,North,358,9.4,15.0,41,0.00,,,0.00,WUHU216PEETBRO,2013-01-25 19:41:00,
2013-01-25 14:46:00,19.6,-0.4,30.12,NW,320,5.6,15.8,41,0.00,,,0.00,WUHU216PEETBRO,2013-01-25 19:46:00,
2013-01-25 14:51:00,18.7,-1.5,30.12,NNW,347,9.1,15.8,41,0.00,,,0.00,WUHU216PEETBRO,2013-01-25 19:51:00,
2013-01-25 14:56:00,18.8,-2.1,30.12,NNW,328,6.1,18.1,39,0.00,,,0.00,WUHU216PEETBRO,2013-01-25 19:56:00,
2013-01-25 15:01:00,19.7,-1.0,30.11,NNW,330,7.8,18.1,40,0.00,,,0.00,WUHU216PEETBRO,2013-01-25 20:01:00,
2013-01-25 15:06:00,19.8,-1.4,30.11,NNW,333,4.3,15.8,39,0.00,,,0.00,WUHU216PEETBRO,2013-01-25 20:06:00,
2013-01-25 15:11:00,20.0,-0.5,30.11,North,351,8.5,15.8,40,0.00,,,0.00,WUHU216PEETBRO,2013-01-25 20:11:00,
2013-01-25 15:16:00,19.8,-0.2,30.11,NW,323,2.4,13.0,41,0.00,,,0.00,WUHU216PEETBRO,2013-01-25 20:16:00,
2013-01-25 15:21:00,20.2,0.0,30.11,NNW,341,3.7,11.0,41,0.00,,,0.00,WUHU216PEETBRO,2013-01-25 20:21:00,
2013-01-25 15:26:00,19.9,-1.0,30.11,NNW,347,0.0,8.1,40,0.00,,,0.00,WUHU216PEETBRO,2013-01-25 20:26:00,
2013-01-25 15:31:00,19.8,-1.2,30.11,NNW,345,7.0,10.9,39,0.00,,,0.00,WUHU216PEETBRO,2013-01-25 20:31:00,
2013-01-25 15:36:00,19.8,-0.5,30.11,NW,321,5.1,10.9,41,0.00,,,0.00,WUHU216PEETBRO,2013-01-25 20:36:00,
2013-01-25 15:41:00,19.6,-0.5,30.11,NNW,335,0.0,10.3,41,0.00,,,0.00,WUHU216PEETBRO,2013-01-25 20:41:00,
2013-01-25 15:46:00,20.2,-0.3,30.11,NNW,338,3.4,12.1,40,0.00,,,0.00,WUHU216PEETBRO,2013-01-25 20:46:00,
2013-01-25 15:51:00,19.5,-0.3,30.11,NNW,341,6.3,14.5,42,0.00,,,0.00,WUHU216PEETBRO,2013-01-25 20:51:00,
2013-01-25 15:56:00,19.9,-0.4,30.11,NNW,338,2.4,14.5,41,0.00,,,0.00,WUHU216PEETBRO,2013-01-25 20:56:00,
2013-01-25 16:01:00,19.1,-0.7,30.10,NW,311,0.0,13.7,41,0.00,,,0.00,WUHU216PEETBRO,2013-01-25 21:01:00,
2013-01-25 16:06:00,19.7,0.2,30.11,NW,324,1.1,11.5,42,0.00,,,0.00,WUHU216PEETBRO,2013-01-25 21:06:00,
2013-01-25 16:11:00,19.3,-0.2,30.11,NNW,335,6.6,8.6,42,0.00,,,0.00,WUHU216PEETBRO,2013-01-25 21:11:00,
2013-01-25 16:16:00,19.9,0.3,30.11,NNW,335,2.2,10.3,42,0.00,,,0.00,WUHU216PEETBRO,2013-01-25 21:16:00,
2013-01-25 16:21:00,19.3,0.1,30.11,NNW,338,2.0,10.3,43,0.00,,,0.00,WUHU216PEETBRO,2013-01-25 21:21:00,
2013-01-25 16:26:00,19.6,-0.1,30.11,NW,321,3.6,8.9,42,0.00,,,0.00,WUHU216PEETBRO,2013-01-25 21:26:00,
2013-01-25 16:31:00,19.5,-0.3,30.11,NW,324,4.6,12.1,42,0.00,,,0.00,WUHU216PEETBRO,2013-01-25 21:31:00,
2013-01-25 16:36:00,19.3,-0.9,30.10,NNW,334,3.2,12.1,41,0.00,,,0.00,WUHU216PEETBRO,2013-01-25 21:36:00,
2013-01-25 16:41:00,18.7,-0.8,30.10,NNW,330,3.5,12.1,42,0.00,,,0.00,WUHU216PEETBRO,2013-01-25 21:41:00,
2013-01-25 16:46:00,19.0,0.0,30.11,North,358,4.0,10.3,43,0.00,,,0.00,WUHU216PEETBRO,2013-01-25 21:46:00,
2013-01-25 16:51:00,18.7,-0.3,30.11,NW,314,0.0,10.8,43,0.00,,,0.00,WUHU216PEETBRO,2013-01-25 21:51:00,
2013-01-25 16:56:00,19.0,0.1,30.11,WNW,300,0.0,10.8,43,0.00,,,0.00,WUHU216PEETBRO,2013-01-25 21:56:00,
2013-01-25 17:01:00,18.3,0.0,30.11,North,349,5.6,7.0,44,0.00,,,0.00,WUHU216PEETBRO,2013-01-25 22:01:00,
2013-01-25 17:06:00,18.3,0.3,30.11,NW,317,0.0,7.0,45,0.00,,,0.00,WUHU216PEETBRO,2013-01-25 22:06:00,
2013-01-25 17:12:00,17.9,-0.2,30.11,NNW,335,1.5,7.0,45,0.00,,,0.00,WUHU216PEETBRO,2013-01-25 22:12:00,
2013-01-25 17:17:00,18.2,0.3,30.11,NW,324,1.9,7.0,45,0.00,,,0.00,WUHU216PEETBRO,2013-01-25 22:17:00,
2013-01-25 17:22:00,17.9,0.0,30.10,NNW,338,1.6,8.3,45,0.00,,,0.00,WUHU216PEETBRO,2013-01-25 22:22:00,
2013-01-25 17:27:00,18.1,0.1,30.10,North,349,3.4,8.3,45,0.00,,,0.00,WUHU216PEETBRO,2013-01-25 22:27:00,
2013-01-25 17:32:00,18.0,0.6,30.11,NNW,327,0.0,7.0,46,0.00,,,0.00,WUHU216PEETBRO,2013-01-25 22:32:00,
2013-01-25 17:37:00,17.8,0.6,30.11,NNW,331,5.3,7.0,46,0.00,,,0.00,WUHU216PEETBRO,2013-01-25 22:37:00,
2013-01-25 17:42:00,17.9,0.8,30.11,NW,321,0.0,6.2,47,0.00,,,0.00,WUHU216PEETBRO,2013-01-25 22:42:00,
2013-01-25 17:47:00,17.9,1.1,30.11,NW,324,0.0,5.9,47,0.00,,,0.00,WUHU216PEETBRO,2013-01-25 22:47:00,
2013-01-25 17:52:00,17.9,1.4,30.11,NNW,330,0.0,8.4,48,0.00,,,0.00,WUHU216PEETBRO,2013-01-25 22:52:00,
2013-01-25 17:57:00,16.8,0.2,30.11,NNW,338,4.0,8.4,48,0.00,,,0.00,WUHU216PEETBRO,2013-01-25 22:57:00,
2013-01-25 18:02:00,17.8,1.1,30.11,NW,320,0.0,6.9,48,0.00,,,0.00,WUHU216PEETBRO,2013-01-25 23:02:00,
2013-01-25 18:07:00,16.7,0.0,30.11,NW,320,0.0,4.1,47,0.00,,,0.00,WUHU216PEETBRO,2013-01-25 23:07:00,
2013-01-25 18:12:00,17.8,0.3,30.11,NNW,342,0.0,7.1,46,0.00,,,0.00,WUHU216PEETBRO,2013-01-25 23:12:00,
2013-01-25 18:17:00,17.8,1.3,30.10,NW,318,0.0,7.5,48,0.00,,,0.00,WUHU216PEETBRO,2013-01-25 23:17:00,
2013-01-25 18:22:00,17.7,1.3,30.10,NW,324,0.0,7.6,48,0.00,,,0.00,WUHU216PEETBRO,2013-01-25 23:22:00,
2013-01-25 18:27:00,17.0,0.5,30.10,North,357,0.0,10.4,48,0.00,,,0.00,WUHU216PEETBRO,2013-01-25 23:27:00,
2013-01-25 18:32:00,18.0,1.5,30.10,North,349,2.7,10.4,48,0.00,,,0.00,WUHU216PEETBRO,2013-01-25 23:32:00,
2013-01-25 18:37:00,17.8,1.0,30.09,NNW,327,5.2,8.1,47,0.00,,,0.00,WUHU216PEETBRO,2013-01-25 23:37:00,
2013-01-25 18:42:00,18.2,1.0,30.09,NW,321,2.2,7.5,47,0.00,,,0.00,WUHU216PEETBRO,2013-01-25 23:42:00,
2013-01-25 18:47:00,17.4,0.6,30.09,NW,324,3.9,7.5,47,0.00,,,0.00,WUHU216PEETBRO,2013-01-25 23:47:00,
2013-01-25 18:52:00,18.0,1.5,30.09,NW,324,0.0,6.1,48,0.00,,,0.00,WUHU216PEETBRO,2013-01-25 23:52:00,
2013-01-25 18:57:00,18.0,1.5,30.09,NW,324,0.0,5.1,48,0.00,,,0.00,WUHU216PEETBRO,2013-01-25 23:57:00,
2013-01-25 19:02:00,18.0,1.5,30.09,NW,324,0.0,0.0,48,0.00,,,0.00,WUHU216PEETBRO,2013-01-26 00:02:00,
2013-01-25 19:07:00,17.9,1.6,30.09,NW,316,0.0,4.2,48,0.00,,,0.00,WUHU216PEETBRO,2013-01-26 00:07:00,
2013-01-25 19:12:00,17.9,1.5,30.08,NW,316,0.0,4.2,48,0.00,,,0.00,WUHU216PEETBRO,2013-01-26 00:12:00,
2013-01-25 19:17:00,17.0,1.1,30.08,NNW,347,0.0,7.9,49,0.00,,,0.00,WUHU216PEETBRO,2013-01-26 00:17:00,
2013-01-25 19:22:00,17.0,0.4,30.08,NW,324,0.0,7.9,48,0.00,,,0.00,WUHU216PEETBRO,2013-01-26 00:22:00,
2013-01-25 19:27:00,17.7,1.5,30.08,NW,323,0.0,6.2,49,0.00,,,0.00,WUHU216PEETBRO,2013-01-26 00:27:00,
2013-01-25 19:32:00,17.2,1.1,30.08,NNW,331,2.6,7.0,49,0.00,,,0.00,WUHU216PEETBRO,2013-01-26 00:32:00,
2013-01-25 19:37:00,17.8,1.9,30.08,NW,324,0.0,7.0,49,0.00,,,0.00,WUHU216PEETBRO,2013-01-26 00:37:00,
2013-01-25 19:42:00,17.0,1.5,30.08,NW,324,0.0,3.3,50,0.00,,,0.00,WUHU216PEETBRO,2013-01-26 00:42:00,
2013-01-25 19:47:00,18.3,2.6,30.08,NW,324,3.2,5.5,50,0.00,,,0.00,WUHU216PEETBRO,2013-01-26 00:47:00,
2013-01-25 19:52:00,18.0,2.3,30.08,NW,323,0.0,5.5,50,0.00,,,0.00,WUHU216PEETBRO,2013-01-26 00:52:00,
2013-01-25 19:57:00,18.0,2.1,30.08,NW,323,0.0,4.5,49,0.00,,,0.00,WUHU216PEETBRO,2013-01-26 00:57:00,
2013-01-25 20:02:00,17.9,1.9,30.08,NW,321,0.0,6.6,49,0.00,,,0.00,WUHU216PEETBRO,2013-01-26 01:02:00,
2013-01-25 20:07:00,18.1,2.1,30.08,NW,321,0.0,6.6,49,0.00,,,0.00,WUHU216PEETBRO,2013-01-26 01:07:00,
2013-01-25 20:12:00,18.2,2.2,30.07,NNW,330,0.0,7.1,49,0.00,,,0.00,WUHU216PEETBRO,2013-01-26 01:12:00,
2013-01-25 20:17:00,18.1,2.3,30.07,NW,318,0.0,7.1,50,0.00,,,0.00,WUHU216PEETBRO,2013-01-26 01:17:00,
2013-01-25 20:22:00,18.0,2.5,30.06,NW,318,0.0,6.5,50,0.00,,,0.00,WUHU216PEETBRO,2013-01-26 01:22:00,
2013-01-25 20:27:00,17.9,2.2,30.06,NNW,335,0.0,3.2,50,0.00,,,0.00,WUHU216PEETBRO,2013-01-26 01:27:00,
2013-01-25 20:32:00,17.3,1.3,30.06,WNW,294,0.0,6.5,49,0.00,,,0.00,WUHU216PEETBRO,2013-01-26 01:32:00,
2013-01-25 20:37:00,18.1,2.4,30.06,NW,317,0.0,6.5,50,0.00,,,0.00,WUHU216PEETBRO,2013-01-26 01:37:00,
2013-01-25 20:42:00,18.3,2.4,30.05,NW,317,0.0,1.9,49,0.00,,,0.00,WUHU216PEETBRO,2013-01-26 01:42:00,
2013-01-25 20:47:00,18.3,2.2,30.05,NW,317,0.0,0.0,49,0.00,,,0.00,WUHU216PEETBRO,2013-01-26 01:47:00,
2013-01-25 20:52:00,18.0,2.2,30.05,NW,317,0.0,0.0,50,0.00,,,0.00,WUHU216PEETBRO,2013-01-26 01:52:00,
2013-01-25 20:57:00,17.8,1.6,30.05,NW,324,0.0,3.4,49,0.00,,,0.00,WUHU216PEETBRO,2013-01-26 01:57:00,
2013-01-25 21:02:00,18.3,2.2,30.05,NW,324,0.0,3.4,49,0.00,,,0.00,WUHU216PEETBRO,2013-01-26 02:02:00,
2013-01-25 21:07:00,17.8,1.7,30.05,NW,324,0.0,0.0,49,0.00,,,0.00,WUHU216PEETBRO,2013-01-26 02:07:00,
2013-01-25 21:12:00,17.3,1.5,30.05,NNW,328,0.0,3.3,49,0.00,,,0.00,WUHU216PEETBRO,2013-01-26 02:12:00,
2013-01-25 21:17:00,18.0,2.5,30.05,NNW,328,0.0,3.3,50,0.00,,,0.00,WUHU216PEETBRO,2013-01-26 02:17:00,
2013-01-25 21:22:00,17.9,2.5,30.05,NNW,328,0.0,0.0,51,0.00,,,0.00,WUHU216PEETBRO,2013-01-26 02:22:00,
2013-01-25 21:27:00,17.9,2.6,30.05,NNW,328,0.0,0.0,51,0.00,,,0.00,WUHU216PEETBRO,2013-01-26 02:27:00,
2013-01-25 21:32:00,18.1,2.9,30.05,NNW,334,3.4,4.0,51,0.00,,,0.00,WUHU216PEETBRO,2013-01-26 02:32:00,
2013-01-25 21:37:00,17.6,2.3,30.04,NNW,328,0.0,5.8,51,0.00,,,0.00,WUHU216PEETBRO,2013-01-26 02:37:00,
2013-01-25 21:42:00,17.1,1.8,30.05,NNW,328,0.0,5.8,51,0.00,,,0.00,WUHU216PEETBRO,2013-01-26 02:42:00,
2013-01-25 21:47:00,18.0,2.8,30.05,NNW,328,0.0,0.0,51,0.00,,,0.00,WUHU216PEETBRO,2013-01-26 02:47:00,
2013-01-25 21:52:00,17.8,2.5,30.04,NNW,328,0.0,0.0,51,0.00,,,0.00,WUHU216PEETBRO,2013-01-26 02:52:00,
2013-01-25 21:57:00,17.7,2.6,30.04,NW,321,0.0,4.3,51,0.00,,,0.00,WUHU216PEETBRO,2013-01-26 02:57:00,
2013-01-25 22:02:00,17.9,2.7,30.04,NNW,334,4.2,4.6,51,0.00,,,0.00,WUHU216PEETBRO,2013-01-26 03:02:00,
2013-01-25 22:07:00,17.8,2.5,30.04,NNW,328,0.0,4.6,51,0.00,,,0.00,WUHU216PEETBRO,2013-01-26 03:07:00,
2013-01-25 22:12:00,17.6,2.7,30.04,NNW,328,0.0,4.6,52,0.00,,,0.00,WUHU216PEETBRO,2013-01-26 03:12:00,
2013-01-25 22:17:00,17.3,2.4,30.04,NNW,328,0.0,0.0,51,0.00,,,0.00,WUHU216PEETBRO,2013-01-26 03:17:00,
2013-01-25 22:22:00,17.8,2.8,30.04,NNW,328,0.0,0.0,51,0.00,,,0.00,WUHU216PEETBRO,2013-01-26 03:22:00,
2013-01-25 22:27:00,17.8,2.7,30.03,NNW,328,0.0,0.0,51,0.00,,,0.00,WUHU216PEETBRO,2013-01-26 03:27:00,
2013-01-25 22:32:00,17.7,2.8,30.03,NNW,328,0.0,0.0,52,0.00,,,0.00,WUHU216PEETBRO,2013-01-26 03:32:00,
2013-01-25 22:37:00,17.7,2.9,30.04,NNW,328,0.0,0.0,52,0.00,,,0.00,WUHU216PEETBRO,2013-01-26 03:37:00,
2013-01-25 22:42:00,17.6,3.0,30.04,NNW,328,0.0,0.0,52,0.00,,,0.00,WUHU216PEETBRO,2013-01-26 03:42:00,
2013-01-25 22:47:00,17.5,2.7,30.04,NNW,328,0.0,0.0,52,0.00,,,0.00,WUHU216PEETBRO,2013-01-26 03:47:00,
2013-01-25 22:52:00,17.7,3.0,30.04,NNW,328,0.0,0.0,52,0.00,,,0.00,WUHU216PEETBRO,2013-01-26 03:52:00,
2013-01-25 22:57:00,16.9,2.6,30.04,NNW,328,0.0,0.0,53,0.00,,,0.00,WUHU216PEETBRO,2013-01-26 03:57:00,
2013-01-25 23:02:00,17.7,3.1,30.04,NNW,328,0.0,0.0,52,0.00,,,0.00,WUHU216PEETBRO,2013-01-26 04:02:00,
2013-01-25 23:07:00,17.7,3.3,30.03,NNW,328,0.0,0.0,53,0.00,,,0.00,WUHU216PEETBRO,2013-01-26 04:07:00,
2013-01-25 23:12:00,17.7,3.4,30.03,NNW,328,0.0,0.0,53,0.00,,,0.00,WUHU216PEETBRO,2013-01-26 04:12:00,
2013-01-25 23:17:00,17.8,3.8,30.03,NNW,328,0.0,0.0,54,0.00,,,0.00,WUHU216PEETBRO,2013-01-26 04:17:00,
2013-01-25 23:22:00,17.7,4.0,30.04,NNW,328,0.0,0.0,55,0.00,,,0.00,WUHU216PEETBRO,2013-01-26 04:22:00,
2013-01-25 23:27:00,17.1,3.5,30.03,NNW,328,0.0,0.0,55,0.00,,,0.00,WUHU216PEETBRO,2013-01-26 04:27:00,
2013-01-25 23:32:00,16.8,2.9,30.04,NNW,328,0.0,0.0,54,0.00,,,0.00,WUHU216PEETBRO,2013-01-26 04:32:00,
2013-01-25 23:37:00,17.5,3.5,30.04,NNW,341,3.6,6.3,54,0.00,,,0.00,WUHU216PEETBRO,2013-01-26 04:37:00,
2013-01-25 23:42:00,17.4,4.8,30.04,NNW,333,1.4,10.4,57,0.00,,,0.00,WUHU216PEETBRO,2013-01-26 04:42:00,
2013-01-25 23:47:00,17.3,6.0,30.03,North,357,0.0,10.4,60,0.00,,,0.00,WUHU216PEETBRO,2013-01-26 04:47:00,
2013-01-25 23:52:00,17.6,7.0,30.04,NNW,331,0.0,7.0,63,0.00,,,0.00,WUHU216PEETBRO,2013-01-26 04:52:00,
2013-01-25 23:57:00,16.7,6.9,30.03,NW,323,0.0,5.6,65,0.00,,,0.00,WUHU216PEETBRO,2013-01-26 04:57:00,